Location: Bremen
(53.0793°N, 8.8017°E)
Time: 11:58:22
(UTC+02:00)

Altair - Pass Details

Date: 20 April 2024
Orbit: 1501 x 1682 km, 47.2° (Epoch: 17 May)

Event Time Altitude Azimuth Distance (km) Brightness Sun altitude
Rises 19:27:33 0° 207° (SSW) 4,918 10.4 8.9°
Reaches altitude 10° 19:31:12 10° 198° (SSW) 3,921 9.8 8.3°
Maximum altitude 19:39:33 31° 141° (SE) 2,582 8.4 7.1°
Drops below altitude 10° 19:47:42 10° 84° (E) 3,836 9.0 5.9°
Sets 19:51:12 0° 75° (ENE) 4,796 9.5 5.4°
